Weather History for Blacksburg, VA

Change the Weather History Date:

Monday, August 11, 2014

  Actual Average Record
Temperature  
Mean Temperature 65 °F 70 °F  
Max Temperature 66 °F 82 °F 91 °F (1980)
Min Temperature 64 °F 59 °F 46 °F (1962)
Degree Days  
Heating Degree Days 0 0  
Month to date heating degree days 1 0  
Since 1 June heating degree days 12 44  
Since 1 July heating degree days 9 6  
Cooling Degree Days 0 6  
Month to date cooling degree days 24 66  
Year to date cooling degree days 428 410  
Since 1 June cooling degree days 370 381  
Growing Degree Days 15 (Base 50)    
Moisture  
Dew Point 65 °F    
Average Humidity 100    
Maximum Humidity 100    
Minimum Humidity 100    
Precipitation  
Precipitation 0.64 in 0.11 in 2.31 in (1988)
Month to date precipitation 3.92 1.36  
Year to date precipitation 23.74 26.96  
Snow  
Snow 0.00 in - - ()
Month to date snowfall 0.0  
Since 1 June snowfall T  
Since 1 July snowfall 0.0  
Snow Depth 0.00 in    
Sea Level Pressure  
Sea Level Pressure 30.13 in    
Wind  
Wind Speed 5 mph (East)    
Max Wind Speed 10 mph    
Max Gust Speed 16 mph    
Visibility 6 miles    
Events Rain    
T = Trace of Precipitation, MM = Missing Value Source: NWS Daily Summary

Daily Weather History Graph

Daily Weather History Graph

Search for Another Location

Airport:

Trip Planner

Search our weather history database for the weather conditions in past years. The results will help you decide how hot, cold, wet, or windy it might be!

Date:

Astronomy

Aug. 11, 2014 Rise Set
Actual Time 6:34 AM EDT 8:18 PM EDT
Civil Twilight 6:06 AM EDT 8:46 PM EDT
Nautical Twilight 5:32 AM EDT 9:19 PM EDT
Astronomical Twilight 4:56 AM EDT 9:55 PM EDT
Moon 8:49 PM EDT (8/11) 7:35 AM EDT (8/11)
Length of Visible Light 14h 39m
Length of Day
13h 43m
Full, 99% of the Moon is Illuminated
Aug 11
Full
Aug 17
Last Quarter
Aug 25
New
Sep 2
First Quarter
Sep 8
Full

Hourly Weather History & Observations

Time (EDT) Temp. Dew Point Humidity Pressure Visibility Wind Dir Wind Speed Gust Speed Precip Events Conditions
12:15 AM 64.4 °F 64.4 °F 100% 30.18 in 5.0 mi Calm Calm - N/A   Overcast
12:35 AM 64.4 °F 64.4 °F 100% 30.18 in 5.0 mi East 3.5 mph - N/A   Overcast
12:55 AM 64.4 °F 64.4 °F 100% 30.18 in 5.0 mi Calm Calm - N/A   Overcast
1:15 AM 64.4 °F 64.4 °F 100% 30.18 in 5.0 mi Calm Calm - N/A   Overcast
1:35 AM 64.4 °F 64.4 °F 100% 30.17 in 5.0 mi Calm Calm - N/A   Overcast
1:55 AM 66.2 °F 66.2 °F 100% 30.17 in 5.0 mi ESE 3.5 mph - N/A   Overcast
2:15 AM 66.2 °F 66.2 °F 100% 30.16 in 5.0 mi Calm Calm - N/A   Overcast
2:35 AM 66.2 °F 66.2 °F 100% 30.16 in 5.0 mi ESE 4.6 mph - N/A   Overcast
2:55 AM 66.2 °F 66.2 °F 100% 30.16 in 5.0 mi East 3.5 mph - N/A   Overcast
3:15 AM 66.2 °F 66.2 °F 100% 30.15 in 5.0 mi ENE 3.5 mph - N/A   Overcast
3:35 AM 66.2 °F 66.2 °F 100% 30.15 in 5.0 mi East 3.5 mph - N/A   Overcast
4:35 AM 64.4 °F 64.4 °F 100% 30.14 in 2.5 mi Calm Calm - 0.05 in Rain Rain
4:55 AM 64.4 °F 64.4 °F 100% 30.14 in 4.0 mi East 6.9 mph - 0.05 in   Drizzle
5:15 AM 64.4 °F 64.4 °F 100% 30.14 in 3.0 mi ESE 4.6 mph - N/A   Drizzle
5:35 AM 64.4 °F 64.4 °F 100% 30.13 in 3.0 mi East 3.5 mph - N/A   Light Drizzle
5:55 AM 64.4 °F 64.4 °F 100% 30.13 in 7.0 mi ESE 6.9 mph - N/A   Overcast
6:15 AM 64.4 °F 64.4 °F 100% 30.13 in 7.0 mi East 6.9 mph - N/A   Overcast
6:35 AM 64.4 °F 64.4 °F 100% 30.13 in 10.0 mi East 4.6 mph - N/A   Overcast
6:55 AM 64.4 °F 64.4 °F 100% 30.14 in 7.0 mi ESE 5.8 mph - N/A   Overcast
7:15 AM 64.4 °F 64.4 °F 100% 30.14 in 7.0 mi ESE 5.8 mph - N/A   Overcast
7:35 AM 64.4 °F 64.4 °F 100% 30.15 in 7.0 mi ESE 5.8 mph - N/A Rain Rain
7:55 AM 64.4 °F 64.4 °F 100% 30.15 in 4.0 mi East 5.8 mph - N/A   Heavy Drizzle
8:15 AM 64.4 °F 64.4 °F 100% 30.15 in 5.0 mi ESE 8.1 mph - N/A   Drizzle
8:35 AM 64.4 °F 64.4 °F 100% 30.15 in 5.0 mi ESE 6.9 mph - N/A Rain Rain
8:55 AM 64.4 °F 64.4 °F 100% 30.16 in 5.0 mi ESE 6.9 mph - N/A Rain Rain
9:15 AM 64.4 °F 64.4 °F 100% 30.16 in 7.0 mi ESE 6.9 mph - 0.03 in Rain Rain
9:35 AM 64.4 °F 64.4 °F 100% 30.16 in 5.0 mi East 3.5 mph - 0.03 in Rain Light Rain
9:55 AM 64.4 °F 64.4 °F 100% 30.16 in 5.0 mi ESE 5.8 mph - 0.03 in Rain Light Rain
10:15 AM 64.4 °F 64.4 °F 100% 30.16 in 7.0 mi ESE 4.6 mph - N/A Rain Light Rain
10:35 AM 64.4 °F 64.4 °F 100% 30.16 in 3.0 mi East 5.8 mph - 0.02 in Rain Rain
10:55 AM 64.4 °F 64.4 °F 100% 30.16 in 5.0 mi East 5.8 mph - 0.06 in Rain Rain
11:15 AM 64.4 °F 64.4 °F 100% 30.16 in 5.0 mi ESE 5.8 mph - 0.02 in Rain Rain
11:35 AM 64.4 °F 64.4 °F 100% 30.15 in 7.0 mi East 5.8 mph - 0.06 in Rain Rain
11:55 AM 64.4 °F 64.4 °F 100% 30.15 in 5.0 mi East 9.2 mph - 0.07 in Rain Light Rain
12:15 PM 64.4 °F 64.4 °F 100% 30.15 in 7.0 mi ESE 8.1 mph - N/A   Overcast
12:35 PM 66.2 °F 66.2 °F 100% 30.14 in 4.0 mi ESE 9.2 mph - N/A   Drizzle
12:55 PM 66.2 °F 66.2 °F 100% 30.14 in 5.0 mi East 5.8 mph - N/A Rain Rain
1:15 PM 66.2 °F 66.2 °F 100% 30.14 in 4.0 mi East 8.1 mph - 0.01 in Rain Light Rain
1:35 PM 66.2 °F 66.2 °F 100% 30.13 in 4.0 mi East 4.6 mph - 0.01 in   Drizzle
1:55 PM 66.2 °F 66.2 °F 100% 30.13 in 5.0 mi ESE 6.9 mph - 0.01 in   Drizzle
2:15 PM 66.2 °F 66.2 °F 100% 30.13 in 4.0 mi ESE 3.5 mph - N/A   Heavy Drizzle
2:35 PM 66.2 °F 66.2 °F 100% 30.12 in 7.0 mi ESE 10.4 mph 16.1 mph 0.07 in Rain Rain
2:55 PM 66.2 °F 66.2 °F 100% 30.12 in 4.0 mi ESE 6.9 mph - 0.10 in Rain Rain
3:15 PM 64.4 °F 64.4 °F 100% 30.11 in 3.0 mi East 8.1 mph - N/A Rain Heavy Rain
3:35 PM 66.2 °F 66.2 °F 100% 30.11 in 4.0 mi ENE 4.6 mph - N/A   Drizzle
3:55 PM 64.4 °F 64.4 °F 100% 30.11 in 5.0 mi East 4.6 mph - N/A   Light Drizzle
4:15 PM 66.2 °F 66.2 °F 100% 30.10 in 7.0 mi East 6.9 mph - N/A Rain Light Rain
4:35 PM 66.2 °F 66.2 °F 100% 30.10 in 10.0 mi East 5.8 mph - N/A   Overcast
4:55 PM 66.2 °F 66.2 °F 100% 30.09 in 10.0 mi East 4.6 mph - N/A   Overcast
5:15 PM 66.2 °F 66.2 °F 100% 30.10 in 10.0 mi ENE 3.5 mph - N/A   Overcast
5:55 PM 66.2 °F 66.2 °F 100% 30.09 in 10.0 mi East 3.5 mph - N/A   Overcast
6:15 PM 66.2 °F 66.2 °F 100% 30.09 in 10.0 mi ENE 4.6 mph - N/A   Overcast
6:35 PM 66.2 °F 66.2 °F 100% 30.07 in 10.0 mi ENE 4.6 mph - N/A   Light Drizzle
6:55 PM 66.2 °F 66.2 °F 100% 30.07 in 7.0 mi East 3.5 mph - N/A   Light Drizzle
7:15 PM 66.2 °F 66.2 °F 100% 30.07 in 7.0 mi East 4.6 mph - N/A Rain Light Rain
7:35 PM 66.2 °F 66.2 °F 100% 30.07 in 10.0 mi ESE 3.5 mph - N/A Rain Light Rain
7:55 PM 66.2 °F 66.2 °F 100% 30.07 in 10.0 mi East 3.5 mph - N/A   Overcast
8:15 PM 66.2 °F 66.2 °F 100% 30.07 in 7.0 mi Calm Calm - N/A   Overcast
8:35 PM 66.2 °F 66.2 °F 100% 30.07 in 7.0 mi East 3.5 mph - N/A   Overcast
8:55 PM 66.2 °F 66.2 °F 100% 30.07 in 5.0 mi East 3.5 mph - N/A   Overcast
9:15 PM 66.2 °F 66.2 °F 100% 30.07 in 4.0 mi Calm Calm - N/A   Overcast
9:35 PM 66.2 °F 66.2 °F 100% 30.07 in 5.0 mi East 4.6 mph - N/A   Overcast
9:55 PM 66.2 °F 66.2 °F 100% 30.07 in 7.0 mi Calm Calm - N/A   Overcast